Flag for Germany Weather past 2 weeks in Haan, North Rhine-Westphalia, Germany

Now
79 °F

Clear.


Feels Like: 80 °F
Forecast: 71 / 86 °F
Wind: 10 mph from Southeast

Location: Duesseldorf

Current Time: Jul 2, 2015 at 3:26:48 AM

Latest Report: Jul 2, 2015 at 2:50 AM


Visibility: 10 mi

Pressure: 30.04 "Hg

Humidity: 48%

Dew point: 57 °F

Location of HaanLocation

Historic Weather in Haan — Graph

°F

Haan temperature yesterday

Maximum temperature yesterday: 93 °F (at 5:20 PM)
Minimum temperature yesterday: 59 °F (at 4:50 AM)
Average temperature yesterday: 80 °F

Past Weeks' High & Low Weather Summary

 TemperatureHumidityPressure
High93 °F (Jul 1, 5:20 PM)100% (Jun 18, 5:50 AM)30.30 "Hg (Jun 18, 5:50 AM)
Low43 °F (Jun 17, 3:50 AM)23% (Jul 1, 5:20 PM)29.71 "Hg (Jun 22, 5:50 PM)
Average64 °F68%30.07 "Hg
* Reported Jun 17 2:20 AM — Jul 2 2:20 AM, Haan, Weather by CustomWeather, © 2015

Note: Actual official high and low records may vary slightly from our data, if they occured in-between our weather recording intervals... More about our weather records

Advertising

Haan weather history for previous 24 hours

 ConditionsComfort  
Time TempWeatherWind HumidityBarometerVisibility
2:20 AM
Thu, Jul 2
79 °FClear.10 mph48%30.04 "Hg10 mi
1:50 AM81 °FClear.10 mph45%30.04 "Hg10 mi
1:20 AM81 °FClear.10 mph45%30.04 "Hg10 mi
12:50 AM82 °FClear.9 mph42%30.04 "Hg10 mi
12:20 AM82 °FClear.10 mph42%30.04 "Hg10 mi
11:50 PM
Wed, Jul 1
84 °FClear.10 mph37%30.04 "Hg10 mi
11:20 PM84 °FClear.13 mph37%30.01 "Hg10 mi
10:50 PM84 °FSunny.12 mph37%30.01 "Hg10 mi
10:20 PM84 °FSunny.12 mph37%30.01 "Hg10 mi
9:50 PM86 °FSunny.12 mph35%30.01 "Hg10 mi
9:20 PM86 °FSunny.12 mph33%30.01 "Hg10 mi
8:50 PM88 °FSunny.12 mph31%30.01 "Hg10 mi
8:20 PM90 °FSunny.13 mph27%30.01 "Hg10 mi
7:50 PM90 °FSunny.13 mph31%30.01 "Hg10 mi
7:20 PM91 °FSunny.12 mph28%30.01 "Hg10 mi
6:50 PM91 °FSunny.14 mph28%30.01 "Hg10 mi
6:20 PM91 °FSunny.13 mph26%30.01 "Hg10 mi
5:50 PM91 °FSunny.13 mph26%30.01 "Hg10 mi
5:20 PM93 °FSunny.9 mph23%30.01 "Hg10 mi
4:50 PM91 °FSunny.12 mph26%30.01 "Hg10 mi
4:20 PM91 °FSunny.13 mph28%30.04 "Hg10 mi
3:50 PM91 °FSunny.14 mph26%30.04 "Hg10 mi
3:20 PM91 °FSunny.13 mph26%30.01 "Hg10 mi
2:50 PM90 °FSunny.13 mph29%30.04 "Hg10 mi
2:20 PM90 °FSunny.12 mph31%30.04 "Hg10 mi
1:50 PM90 °FSunny.15 mph27%30.04 "Hg10 mi
1:20 PM90 °FSunny.14 mph27%30.04 "Hg10 mi
12:50 PM88 °FSunny.14 mph31%30.07 "Hg10 mi
12:20 PM88 °FSunny.14 mph31%30.07 "Hg10 mi
11:50 AM86 °FSunny.15 mph31%30.07 "Hg10 mi
11:20 AM84 °FSunny.10 mph35%30.07 "Hg10 mi
10:50 AM84 °FSunny.12 mph37%30.07 "Hg10 mi
10:20 AM82 °FSunny.13 mph40%30.07 "Hg10 mi
9:50 AM81 °FSunny.13 mph42%30.07 "Hg10 mi
9:20 AM79 °FSunny.9 mph48%30.09 "Hg10 mi
8:50 AM77 °FSunny.9 mph51%30.09 "Hg10 mi
8:20 AM75 °FSunny.8 mph50%30.09 "Hg10 mi
7:50 AM73 °FSunny.7 mph53%30.09 "Hg10 mi
7:20 AM70 °FSunny.7 mph69%30.09 "Hg10 mi
6:50 AM64 °FSunny.7 mph78%30.09 "Hg10 mi
6:20 AM61 °FSunny.6 mph83%30.09 "Hg10 mi
5:50 AM59 °FClear.5 mph88%30.09 "Hg10 mi
5:20 AM59 °FClear.2 mph88%30.09 "Hg10 mi
4:50 AM59 °FClear.3 mph88%30.09 "Hg10 mi
4:20 AM61 °FClear.1 mph83%30.09 "Hg10 mi
3:50 AM63 °FClear.No wind73%30.09 "Hg10 mi
3:20 AM63 °FClear.2 mph73%30.09 "Hg10 mi
Weather by CustomWeather, © 2015

See weather overviewHow to use our weather pages